TimeEDT,TemperatureF,Dew PointF,Humidity,Sea Level PressureIn,VisibilityMPH,Wind Direction,Wind SpeedMPH,Gust SpeedMPH,PrecipitationIn,Events,Conditions,WindDirDegrees,DateUTC
12:53 AM,59.0,51.1,75,29.84,10.0,Calm,Calm,-,N/A,,Clear,0,2013-05-17 04:53:00
1:53 AM,66.0,42.1,42,29.86,10.0,NNW,9.2,-,N/A,,Clear,330,2013-05-17 05:53:00
2:53 AM,64.9,36.0,34,29.88,10.0,NNW,13.8,20.7,N/A,,Clear,340,2013-05-17 06:53:00
3:53 AM,63.0,35.1,35,29.91,10.0,NNW,6.9,-,N/A,,Clear,330,2013-05-17 07:53:00
4:53 AM,60.1,37.0,42,29.93,10.0,NW,4.6,-,N/A,,Clear,320,2013-05-17 08:53:00
5:53 AM,59.0,39.0,48,29.97,10.0,North,6.9,-,N/A,,Clear,360,2013-05-17 09:53:00
6:53 AM,59.0,39.9,49,30.00,10.0,North,9.2,-,N/A,,Clear,350,2013-05-17 10:53:00
8:53 AM,63.0,39.0,41,30.03,10.0,NNW,13.8,18.4,N/A,,Clear,330,2013-05-17 12:53:00
9:53 AM,63.0,39.0,41,30.05,10.0,NW,13.8,19.6,N/A,,Clear,320,2013-05-17 13:53:00
10:53 AM,63.0,39.9,43,30.07,10.0,NNW,8.1,-,N/A,,Clear,330,2013-05-17 14:53:00
11:53 AM,66.0,39.9,38,30.07,10.0,North,11.5,-,N/A,,Clear,360,2013-05-17 15:53:00
12:53 PM,66.0,39.0,37,30.07,10.0,North,16.1,20.7,N/A,,Clear,360,2013-05-17 16:53:00
1:53 PM,68.0,39.0,35,30.08,10.0,NW,10.4,18.4,N/A,,Clear,320,2013-05-17 17:53:00
3:53 PM,69.1,37.9,32,30.08,10.0,North,9.2,-,N/A,,Clear,350,2013-05-17 19:53:00
4:53 PM,71.1,39.9,32,30.09,10.0,Variable,6.9,-,N/A,,Clear,0,2013-05-17 20:53:00
5:30 PM,71.6,37.4,29,30.09,10.0,North,10.4,17.3,N/A,,Clear,360,2013-05-17 21:30:00
5:53 PM,71.1,37.9,30,30.09,10.0,North,8.1,-,N/A,,Clear,360,2013-05-17 21:53:00
6:53 PM,71.1,37.9,30,30.11,10.0,NNE,5.8,-,N/A,,Clear,20,2013-05-17 22:53:00
7:53 PM,66.9,39.0,36,30.13,10.0,NE,5.8,-,N/A,,Clear,50,2013-05-17 23:53:00
8:53 PM,62.1,41.0,46,30.16,10.0,South,4.6,-,N/A,,Clear,180,2013-05-18 00:53:00
9:53 PM,62.1,44.1,52,30.18,10.0,Calm,Calm,-,N/A,,Clear,0,2013-05-18 01:53:00
10:53 PM,60.1,42.1,51,30.19,10.0,Calm,Calm,-,N/A,,Clear,0,2013-05-18 02:53:00
11:53 PM,57.9,43.0,58,30.21,10.0,Calm,Calm,-,N/A,,Clear,0,2013-05-18 03:53:00